CW9236 Weather Reports


Display with metric or nautical units.
time (UTC)temp
F
wind
direction
speed
MPH
gust
MPH
rain 1hr
in
rain 24hr
in
rain mn
in
humidity
%
barometer
mb
20260503044529 61 279 0.0 0.0 0.00 0.01 0.01 84 1021.0
20260503044011 60 279 0.0 0.0 0.00 0.01 0.01 84 1021.0
20260503043510 60 279 0.0 0.0 0.00 0.01 0.01 83 1021.0
20260503043021 61 279 0.0 0.0 0.00 0.01 0.01 83 1020.9
20260503042508 61 279 0.0 0.0 0.00 0.01 0.01 82 1020.9
20260503042008 61 279 0.0 0.0 0.00 0.01 0.01 82 1020.8
20260503041525 61 279 0.0 0.0 0.00 0.01 0.01 83 1020.9
20260503040511 61 279 0.0 0.0 0.00 0.01 0.01 82 1021.0
20260503035509 62 279 0.0 0.0 0.00 0.01 0.01 81 1021.0
20260503035010 62 279 0.0 0.0 0.00 0.01 0.01 81 1021.0
20260503034516 62 279 0.0 0.0 0.00 0.01 0.01 80 1020.9
20260503034012 62 279 0.0 0.0 0.00 0.01 0.01 80 1020.8
20260503033509 62 279 0.0 0.0 0.00 0.01 0.01 79 1020.7
20260503033038 62 279 0.0 0.0 0.00 0.01 0.01 79 1020.6
20260503032511 63 279 0.0 0.0 0.00 0.01 0.01 79 1020.6
20260503032010 63 279 0.0 0.0 0.00 0.01 0.01 78 1020.5
20260503031533 63 279 0.0 0.0 0.00 0.01 0.01 78 1020.4
20260503031010 64 279 0.0 2.0 0.00 0.01 0.01 78 1020.4
20260503030510 64 279 0.0 2.0 0.00 0.01 0.01 78 1020.4
20260503030027 64 279 0.0 0.0 0.00 0.01 0.01 75 1020.3
20260503025510 64 279 0.0 0.0 0.00 0.01 0.01 75 1020.3
20260503025011 64 279 0.0 0.0 0.00 0.01 0.01 74 1020.4
20260503024523 64 279 0.0 0.0 0.00 0.01 0.01 73 1020.4
20260503024009 64 279 0.0 0.0 0.00 0.01 0.01 72 1020.3
20260503023510 64 279 0.0 0.0 0.00 0.01 0.01 72 1020.3
20260503023040 65 279 0.0 0.0 0.00 0.01 0.01 70 1020.3
20260503022509 65 279 0.0 0.0 0.00 0.01 0.01 69 1020.2
20260503022016 66 279 0.0 0.0 0.00 0.01 0.01 69 1020.1
20260503021525 66 279 0.0 0.0 0.00 0.01 0.01 67 1020.0
20260503021008 66 279 0.0 0.0 0.00 0.01 0.01 66 1019.9
20260503020016 67 279 0.0 0.0 0.00 0.02 0.01 63 1020.0
20260503015010 68 279 0.0 0.0 0.00 0.03 0.01 61 1019.9
20260503014524 68 279 0.0 1.0 0.00 0.04 0.01 60 1019.8
20260503013506 69 279 0.0 2.0 0.00 0.05 0.01 59 1019.7
20260503012512 69 279 0.0 0.0 0.00 0.06 0.01 59 1019.6
20260503012012 69 279 0.0 0.0 0.00 0.07 0.01 58 1019.6
20260503011526 69 279 0.0 0.0 0.00 0.08 0.01 58 1019.5
20260503010514 70 279 0.0 1.0 0.00 0.12 0.01 55 1019.5
20260503005012 72 279 0.0 1.0 0.00 0.15 0.01 51 1019.3
20260503001008 73 280 0.0 6.0 0.00 0.18 0.01 51 1018.9
20260503000507 73 280 0.0 6.0 0.00 0.18 0.01 49 1018.8
20260503000024 73 245 0.0 5.0 0.00 0.19 0.01 47 1018.8
20260502235508 73 246 0.0 5.0 0.00 0.20 0.01 46 1018.6
20260502235007 74 275 0.0 4.0 0.00 0.22 0.01 46 1018.6
20260502234526 74 275 0.0 6.0 0.00 0.24 0.01 47 1018.6
20260502234011 74 280 1.0 6.0 0.00 0.27 0.01 45 1018.5
20260502233028 74 277 0.0 6.0 0.00 0.32 0.01 46 1018.6
20260502232510 74 277 1.0 8.0 0.00 0.33 0.01 45 1018.7
20260502231521 74 282 0.0 7.0 0.00 0.33 0.01 46 1018.6
20260502231007 74 277 2.0 7.0 0.00 0.33 0.01 44 1018.7
20260502230507 75 277 1.0 6.0 0.00 0.34 0.01 45 1018.7
20260502230022 74 261 0.0 6.0 0.00 0.36 0.01 45 1018.6
20260502225510 75 126 1.0 4.0 0.00 0.44 0.01 45 1018.7
20260502225007 74 78 1.0 3.0 0.00 0.47 0.01 45 1018.7
20260502224506 74 118 0.0 5.0 0.00 0.47 0.01 44 1018.6
20260502224005 75 253 1.0 6.0 0.00 0.48 0.01 44 1018.6
20260502223505 75 106 1.0 6.0 0.00 0.48 0.01 44 1018.6
20260502223011 75 98 2.0 4.0 0.00 0.48 0.01 43 1018.7
20260502222505 75 278 0.0 9.0 0.00 0.48 0.01 45 1018.7
20260502222005 75 279 1.0 9.0 0.00 0.48 0.01 43 1018.8
20260502221516 75 277 1.0 6.0 0.00 0.48 0.01 45 1018.8
20260502221007 75 283 1.0 6.0 0.00 0.48 0.01 43 1018.8
20260502220509 75 257 1.0 8.0 0.00 0.48 0.01 44 1018.9
20260502220006 75 90 1.0 8.0 0.00 0.48 0.01 43 1018.9
20260502215505 75 276 2.0 8.0 0.00 0.48 0.01 44 1018.8
20260502215005 75 236 2.0 9.0 0.00 0.48 0.01 43 1018.9
20260502214509 75 273 2.0 9.0 0.00 0.48 0.01 46 1018.9
20260502214004 75 105 2.0 8.0 0.00 0.48 0.01 47 1018.9
20260502213507 75 277 0.0 8.0 0.00 0.49 0.01 46 1019.0
20260502213017 75 277 1.0 7.0 0.00 0.50 0.01 45 1019.1
20260502212509 75 271 1.0 7.0 0.00 0.51 0.01 45 1019.1
20260502212008 75 272 1.0 7.0 0.00 0.52 0.01 44 1019.1
20260502211518 75 254 1.0 7.0 0.00 0.52 0.01 46 1019.1
20260502211009 74 163 1.0 7.0 0.00 0.52 0.01 46 1019.1
20260502210511 74 173 1.0 7.0 0.00 0.52 0.01 44 1019.2
20260502210007 75 265 0.0 8.0 0.00 0.52 0.01 44 1019.1
20260502205503 74 165 1.0 8.0 0.00 0.52 0.01 44 1019.1
20260502205006 75 275 1.0 7.0 0.00 0.54 0.01 49 1019.2
20260502204520 75 131 3.0 7.0 0.00 0.54 0.01 48 1019.3
20260502203507 74 244 1.0 8.0 0.00 0.56 0.01 50 1019.2
20260502191007 73 153 3.0 8.0 0.00 0.70 0.01 49 1020.4
20260502185508 72 254 3.0 10.0 0.00 0.73 0.01 49 1020.5
20260502185007 72 246 3.0 8.0 0.00 0.73 0.01 51 1020.6
20260502184523 72 279 0.0 7.0 0.00 0.74 0.01 51 1020.5
20260502184008 72 279 2.0 7.0 0.00 0.75 0.01 49 1020.6
20260502183508 72 281 0.0 3.0 0.00 0.77 0.01 50 1020.7
20260502183020 72 281 1.0 4.0 0.00 0.79 0.01 53 1020.9
20260502182508 72 282 1.0 7.0 0.00 0.81 0.01 50 1020.9
20260502182011 72 147 1.0 9.0 0.00 0.83 0.01 53 1020.9
20260502181522 72 142 2.0 9.0 0.00 0.86 0.01 51 1021.0
20260502181011 72 45 1.0 8.0 0.00 0.87 0.01 51 1021.0
20260502180504 72 250 1.0 8.0 0.00 0.87 0.01 52 1021.1
20260502170511 69 101 2.0 11.0 0.00 0.95 0.01 53 1021.6
20260502164010 69 84 3.0 7.0 0.00 0.98 0.01 57 1021.5
20260502163510 69 132 3.0 8.0 0.00 0.99 0.01 59 1021.6
20260502163025 68 126 2.0 8.0 0.00 1.01 0.01 56 1021.6
20260502162512 68 248 1.0 10.0 0.00 1.02 0.01 59 1021.6
20260502162011 68 136 1.0 10.0 0.00 1.04 0.01 61 1021.6
20260502161526 68 255 2.0 9.0 0.00 1.08 0.01 62 1021.6
20260502161006 67 165 3.0 9.0 0.00 1.11 0.01 61 1021.5
20260502160507 67 159 3.0 12.0 0.00 1.15 0.01 59 1021.4
20260502152011 65 248 1.0 6.0 0.00 1.32 0.01 70 1021.2
20260502151510 65 91 2.0 7.0 0.00 1.32 0.01 71 1021.2
20260502130511 55 277 1.0 6.0 0.00 1.63 0.00 90 1020.1
20260502123510 53 271 0.0 2.0 0.00 1.81 0.00 92 1019.7
20260502123031 53 271 0.0 3.0 0.00 1.82 0.00 92 1019.6
20260502122510 52 271 0.0 4.0 0.00 1.85 0.00 92 1019.5
20260502122010 52 271 0.0 4.0 0.00 1.87 0.00 92 1019.4
20260502121519 52 270 1.0 4.0 0.00 1.88 0.00 92 1019.3
20260502121008 52 270 1.0 3.0 0.00 1.89 0.00 92 1019.4
20260502120511 52 271 0.0 3.0 0.00 1.90 0.00 92 1019.4
20260502115504 52 270 0.0 4.0 0.00 1.90 0.00 91 1019.3
20260502115003 52 270 0.0 4.0 0.00 1.92 0.00 92 1019.1
20260502114508 52 270 0.0 2.0 0.00 1.95 0.00 91 1018.9
20260502114006 52 270 0.0 2.0 0.00 1.98 0.00 91 1018.8
20260502113506 52 271 0.0 2.0 0.00 2.01 0.00 91 1018.8
20260502113014 52 271 0.0 2.0 0.00 2.01 0.00 91 1018.8
20260502112506 52 271 0.0 2.0 0.00 2.01 0.00 91 1018.7
20260502112005 52 270 0.0 3.0 0.00 2.02 0.00 91 1018.7
20260502111521 52 270 0.0 3.0 0.00 2.03 0.00 91 1018.6
20260502111010 52 270 0.0 2.0 0.00 2.03 0.00 91 1018.6
20260502110503 52 271 0.0 4.0 0.00 2.04 0.00 91 1018.6
20260502110008 53 270 0.0 4.0 0.00 2.05 0.00 91 1018.6
20260502105504 53 271 0.0 4.0 0.00 2.10 0.00 91 1018.5
20260502105003 53 270 2.0 4.0 0.00 2.21 0.00 90 1018.5
20260502104515 53 271 0.0 3.0 0.00 2.23 0.00 90 1018.5
20260502104006 53 271 1.0 3.0 0.00 2.25 0.00 90 1018.4
20260502103506 53 271 0.0 4.0 0.00 2.25 0.00 89 1018.5
20260502103019 53 271 1.0 4.0 0.00 2.26 0.00 89 1018.4
20260502102010 53 271 0.0 2.0 0.00 2.27 0.00 89 1018.3
20260502101520 53 271 0.0 1.0 0.00 2.29 0.00 89 1018.1
20260502101013 53 271 0.0 6.0 0.00 2.30 0.00 89 1018.0
20260502100502 53 271 0.0 6.0 0.00 2.33 0.00 89 1017.8
20260502091524 54 284 0.0 3.0 0.00 2.96 0.00 88 1016.9
20260502091010 55 286 0.0 3.0 0.00 3.07 0.00 87 1016.9
20260502090502 55 283 0.0 2.0 0.00 3.29 0.00 87 1016.9
20260502071525 55 99 1.0 5.0 0.00 4.10 0.00 89 1016.3
20260502071004 55 126 1.0 5.0 0.00 4.10 0.00 89 1016.5
20260502065507 55 135 0.0 3.0 0.00 4.10 0.00 90 1016.9
20260502065013 55 250 0.0 5.0 0.00 4.10 0.00 90 1016.9
20260502064519 55 190 0.0 5.0 0.00 4.10 0.00 90 1016.6
20260502064011 55 105 1.0 4.0 0.00 4.10 0.00 90 1016.5
20260502063507 55 74 1.0 4.0 0.00 4.10 0.00 90 1016.4
20260502063023 55 96 1.0 4.0 0.00 4.10 0.00 90 1016.3
20260502062516 55 253 0.0 4.0 0.00 4.10 0.00 90 1016.4
20260502062011 55 142 0.0 5.0 0.00 4.10 0.00 90 1016.3
20260502061526 55 245 0.0 5.0 0.00 4.10 0.00 90 1016.2
20260502061004 55 279 1.0 8.0 0.00 4.10 0.00 90 1016.3
20260502060507 55 86 1.0 8.0 0.00 4.10 0.00 90 1016.2
20260502060018 55 174 1.0 7.0 0.00 4.10 0.00 90 1016.3
20260502055505 55 86 2.0 6.0 0.00 4.10 0.00 90 1016.2
20260502055010 55 285 1.0 11.0 0.00 4.10 0.00 90 1016.3
20260502054519 55 136 1.0 11.0 0.00 4.11 0.00 90 1016.3
20260502054010 55 172 1.0 6.0 0.00 4.12 0.00 90 1016.2
20260502053508 56 158 2.0 6.0 0.00 4.19 0.00 90 1016.2
20260502053026 56 281 0.0 7.0 0.00 4.23 0.00 90 1016.2
20260502052510 56 213 2.0 8.0 0.00 4.23 0.00 90 1016.1
20260502052012 56 132 1.0 8.0 0.00 4.23 0.00 90 1016.2
20260502051530 56 283 1.0 7.0 0.00 4.23 0.00 90 1016.1
20260502051003 56 157 0.0 10.0 0.00 4.23 0.00 91 1016.1
20260502050505 56 254 1.0 10.0 0.00 4.23 0.00 91 1016.1
20260502050016 56 116 0.0 8.0 0.00 4.23 0.00 91 1016.0
20260502045509 56 248 1.0 8.0 0.00 4.30 4.23 91 1016.0
20260502045013 56 105 3.0 10.0 0.00 4.46 4.23 91 1016.0